When you browse on this site, cookies collect data to enhance your experience and personalize the content and advertising you see.
Visit our Privacy Policy to learn more. By continuing to use the site, you agree to this use of cookies and data.
  • In Lithuania
  • List of Countries
  • For 7 days
  • Water Temperature
  • Weather Map
  • Weather Widgets
  • user-avatar
    Login

    Hourly Weather Berat

    Today, 17 September, Tuesday

    Time Temperature Precipitation Wind Pressure Humidity
    00:00 +20°C° 0 mm 0 mps 746 mmHg 71%
    01:00 +21°C° 0 mm 1 mps 746 mmHg 70%
    02:00 +21°C° 0 mm 1 mps 745 mmHg 70%
    03:00 +21°C° 0 mm 1 mps 745 mmHg 70%
    04:00 +21°C° 0 mm 1 mps 745 mmHg 69%
    05:00 +20°C° 0 mm 0 mps 745 mmHg 66%
    06:00 +21°C° 0 mm 0 mps 745 mmHg 62%
    07:00 +24°C° 0 mm 1 mps 745 mmHg 59%
    08:00 +26°C° 0 mm 1 mps 745 mmHg 52%
    09:00 +28°C° 0 mm 1 mps 745 mmHg 45%
    10:00 +30°C° 0 mm 1 mps 745 mmHg 38%
    11:00 +31°C° 0 mm 2 mps 745 mmHg 36%
    12:00 +31°C° 0 mm 3 mps 745 mmHg 33%
    13:00 +33°C° 0 mm 3 mps 745 mmHg 31%
    14:00 +31°C° 0 mm 3 mps 744 mmHg 34%
    15:00 +30°C° 0 mm 3 mps 744 mmHg 37%
    16:00 +29°C° 0 mm 3 mps 744 mmHg 40%
    17:00 +27°C° 0 mm 2 mps 744 mmHg 49%
    18:00 +25°C° 0 mm 1 mps 744 mmHg 57%
    19:00 +21°C° 0 mm 0 mps 744 mmHg 65%
    20:00 +21°C° 0 mm 0 mps 744 mmHg 65%
    21:00 +22°C° 0 mm 1 mps 744 mmHg 65%
    22:00 +22°C° 0 mm 1 mps 744 mmHg 64%
    23:00 +22°C° 0 mm 1 mps 744 mmHg 63%

    Tomorrow, 18 September, Wednesday

    Time Temperature Precipitation Wind Pressure Humidity
    00:00 +21°C° 0 mm 1 mps 744 mmHg 62%
    01:00 +21°C° 0 mm 1 mps 744 mmHg 61%
    02:00 +21°C° 0 mm 1 mps 744 mmHg 60%
    03:00 +21°C° 0 mm 1 mps 744 mmHg 60%
    04:00 +20°C° 0 mm 1 mps 743 mmHg 60%
    05:00 +21°C° 0 mm 1 mps 744 mmHg 56%
    06:00 +23°C° 0 mm 1 mps 744 mmHg 52%
    07:00 +24°C° 0 mm 1 mps 744 mmHg 48%
    08:00 +26°C° 0 mm 1 mps 744 mmHg 45%
    09:00 +27°C° 0 mm 2 mps 744 mmHg 42%
    10:00 +29°C° 0 mm 2 mps 744 mmHg 39%
    11:00 +30°C° 0 mm 3 mps 744 mmHg 38%
    12:00 +30°C° 0 mm 3 mps 744 mmHg 37%
    13:00 +32°C° 0 mm 4 mps 744 mmHg 36%
    14:00 +31°C° 0 mm 3 mps 744 mmHg 39%
    15:00 +30°C° 0 mm 3 mps 743 mmHg 41%
    16:00 +29°C° 0 mm 3 mps 743 mmHg 44%
    17:00 +27°C° 0 mm 2 mps 744 mmHg 53%
    18:00 +25°C° 0 mm 2 mps 744 mmHg 62%
    19:00 +23°C° 0 mm 1 mps 744 mmHg 71%
    20:00 +23°C° 0 mm 1 mps 744 mmHg 73%
    21:00 +23°C° 0 mm 1 mps 745 mmHg 74%
    22:00 +22°C° 0 mm 1 mps 745 mmHg 76%
    23:00 +22°C° 0 mm 1 mps 745 mmHg 75%

    Day after tomorrow, 19 September, Thursday

    Time Temperature Precipitation Wind Pressure Humidity
    00:00 +22°C° 0 mm 1 mps 745 mmHg 74%
    01:00 +22°C° 0 mm 1 mps 745 mmHg 73%
    02:00 +22°C° 0 mm 1 mps 745 mmHg 72%
    03:00 +21°C° 0 mm 1 mps 745 mmHg 71%
    04:00 +21°C° 0 mm 1 mps 744 mmHg 70%
    05:00 +22°C° 0 mm 1 mps 744 mmHg 66%
    06:00 +23°C° 0 mm 1 mps 745 mmHg 61%
    07:00 +24°C° 0 mm 1 mps 745 mmHg 57%
    08:00 +26°C° 0 mm 1 mps 745 mmHg 50%
    09:00 +28°C° 0 mm 1 mps 745 mmHg 44%
    10:00 +30°C° 0 mm 1 mps 745 mmHg 38%
    11:00 +30°C° 0 mm 2 mps 745 mmHg 39%
    12:00 +31°C° 0 mm 3 mps 745 mmHg 39%
    13:00 +32°C° 0 mm 4 mps 744 mmHg 40%
    14:00 +30°C° 0.2 mm 4 mps 744 mmHg 43%
    15:00 +29°C° 0.2 mm 3 mps 744 mmHg 46%
    16:00 +28°C° 0.2 mm 3 mps 744 mmHg 49%
    17:00 +27°C° 0.3 mm 2 mps 744 mmHg 55%
    18:00 +25°C° 0.3 mm 2 mps 745 mmHg 61%
    19:00 +23°C° 0.3 mm 1 mps 745 mmHg 68%
    20:00 +23°C° 0.5 mm 1 mps 745 mmHg 71%
    21:00 +23°C° 0.5 mm 1 mps 746 mmHg 74%
    22:00 +22°C° 0.5 mm 1 mps 746 mmHg 76%
    23:00 +22°C° 0.4 mm 1 mps 746 mmHg 78%

    20 September, Friday

    Time Temperature Precipitation Wind Pressure Humidity
    00:00 +22°C° 0.4 mm 1 mps 746 mmHg 79%
    01:00 +22°C° 0.4 mm 1 mps 746 mmHg 80%
    02:00 +22°C° 0.1 mm 1 mps 746 mmHg 80%
    03:00 +22°C° 0.1 mm 1 mps 746 mmHg 79%
    04:00 +22°C° 0.1 mm 1 mps 746 mmHg 79%
    05:00 +22°C° 0.1 mm 1 mps 746 mmHg 78%
    06:00 +22°C° 0.1 mm 1 mps 746 mmHg 76%
    07:00 +22°C° 0.1 mm 1 mps 746 mmHg 74%
    08:00 +24°C° 0.1 mm 1 mps 746 mmHg 67%
    09:00 +25°C° 0.1 mm 2 mps 747 mmHg 61%
    10:00 +27°C° 0.1 mm 2 mps 747 mmHg 54%
    11:00 +27°C° 0.4 mm 2 mps 747 mmHg 51%
    12:00 +28°C° 0.4 mm 2 mps 746 mmHg 48%
    13:00 +29°C° 0.4 mm 3 mps 746 mmHg 45%
    14:00 +28°C° 0.1 mm 3 mps 746 mmHg 45%
    15:00 +28°C° 0.1 mm 3 mps 746 mmHg 45%
    16:00 +27°C° 0.1 mm 3 mps 746 mmHg 46%
    17:00 +25°C° 0 mm 2 mps 746 mmHg 51%
    18:00 +23°C° 0 mm 2 mps 747 mmHg 55%
    19:00 +22°C° 0 mm 1 mps 747 mmHg 60%
    20:00 +21°C° 0 mm 1 mps 747 mmHg 62%
    21:00 +21°C° 0 mm 1 mps 747 mmHg 64%
    22:00 +20°C° 0 mm 1 mps 748 mmHg 65%
    23:00 +20°C° 0 mm 1 mps 748 mmHg 65%

    21 September, Saturday

    Time Temperature Precipitation Wind Pressure Humidity
    00:00 +20°C° 0 mm 1 mps 748 mmHg 64%
    01:00 +19°C° 0 mm 2 mps 748 mmHg 63%
    02:00 +18°C° 0 mm 2 mps 748 mmHg 63%
    03:00 +18°C° 0 mm 2 mps 748 mmHg 62%
    04:00 +18°C° 0 mm 2 mps 748 mmHg 62%
    05:00 +18°C° 0 mm 2 mps 748 mmHg 58%
    06:00 +19°C° 0 mm 2 mps 748 mmHg 54%
    07:00 +20°C° 0 mm 2 mps 749 mmHg 50%
    08:00 +23°C° 0 mm 2 mps 749 mmHg 45%
    09:00 +25°C° 0 mm 1 mps 749 mmHg 39%
    10:00 +27°C° 0 mm 1 mps 750 mmHg 34%
    11:00 +28°C° 0 mm 2 mps 749 mmHg 33%
    12:00 +29°C° 0 mm 2 mps 749 mmHg 32%
    13:00 +29°C° 0 mm 3 mps 749 mmHg 31%
    14:00 +29°C° 0 mm 3 mps 749 mmHg 32%
    15:00 +28°C° 0 mm 3 mps 749 mmHg 34%
    16:00 +27°C° 0 mm 3 mps 748 mmHg 36%
    17:00 +25°C° 0 mm 2 mps 749 mmHg 41%
    18:00 +23°C° 0 mm 2 mps 749 mmHg 47%
    19:00 +21°C° 0 mm 1 mps 749 mmHg 52%
    20:00 +21°C° 0 mm 1 mps 750 mmHg 54%
    21:00 +20°C° 0 mm 1 mps 750 mmHg 56%
    22:00 +20°C° 0 mm 1 mps 750 mmHg 58%
    23:00 +20°C° 0 mm 1 mps 750 mmHg 59%

    22 September, Sunday

    Time Temperature Precipitation Wind Pressure Humidity
    00:00 +19°C° 0 mm 1 mps 750 mmHg 61%
    01:00 +19°C° 0 mm 1 mps 750 mmHg 62%
    02:00 +19°C° 0 mm 1 mps 750 mmHg 63%
    03:00 +18°C° 0 mm 1 mps 750 mmHg 63%
    04:00 +17°C° 0 mm 2 mps 750 mmHg 64%
    05:00 +18°C° 0 mm 2 mps 750 mmHg 61%
    06:00 +19°C° 0 mm 2 mps 750 mmHg 58%
    07:00 +20°C° 0 mm 2 mps 751 mmHg 55%
    08:00 +23°C° 0 mm 1 mps 751 mmHg 48%
    09:00 +25°C° 0 mm 1 mps 751 mmHg 41%
    10:00 +25°C° 0 mm 0 mps 751 mmHg 35%
    11:00 +28°C° 0 mm 1 mps 751 mmHg 33%
    12:00 +28°C° 0 mm 2 mps 751 mmHg 31%
    13:00 +29°C° 0 mm 3 mps 750 mmHg 30%
    14:00 +28°C° 0 mm 3 mps 750 mmHg 33%
    15:00 +27°C° 0 mm 3 mps 750 mmHg 37%
    16:00 +27°C° 0 mm 3 mps 749 mmHg 40%
    17:00 +25°C° 0 mm 2 mps 749 mmHg 45%
    18:00 +23°C° 0 mm 2 mps 750 mmHg 51%
    19:00 +21°C° 0 mm 1 mps 750 mmHg 56%
    20:00 +21°C° 0 mm 1 mps 750 mmHg 56%
    21:00 +20°C° 0 mm 1 mps 750 mmHg 56%
    22:00 +20°C° 0 mm 1 mps 750 mmHg 55%
    23:00 +20°C° 0 mm 1 mps 750 mmHg 55%
    Show more